Weather History for Charlevoix, MI

Change the Weather History Date:

Monday, January 19, 2015

  Actual Average Record
Temperature  
Mean Temperature 18 °F -  
Max Temperature 26 °F 30 °F 38 °F (2013)
Min Temperature 11 °F 19 °F 5 °F (2009)
Degree Days  
Heating Degree Days 47    
Moisture  
Dew Point 13 °F    
Average Humidity 80    
Maximum Humidity 89    
Minimum Humidity 73    
Precipitation  
Precipitation 0.00 in - - ()
Sea Level Pressure  
Sea Level Pressure 30.03 in    
Wind  
Wind Speed 9 mph (NNE)    
Max Wind Speed 14 mph    
Max Gust Speed 21 mph    
Visibility 10 miles    
Events Snow    
Averages and records for this station are not official NWS values.
T = Trace of Precipitation, MM = Missing Value Source: NWS Daily Summary

Daily Weather History Graph

Daily Weather History Graph

Search for Another Location

Airport:

Trip Planner

Search our weather history database for the weather conditions in past years. The results will help you decide how hot, cold, wet, or windy it might be!

Date:

Astronomy

Jan. 19, 2015 Rise Set
Actual Time 8:14 AM EST 5:29 PM EST
Civil Twilight 7:41 AM EST 6:02 PM EST
Nautical Twilight 7:05 AM EST 6:38 PM EST
Astronomical Twilight 6:30 AM EST 7:13 PM EST
Moon 7:04 AM EST (1/19) 4:58 PM EST (1/19)
Length of Visible Light 10h 20m
Length of Day
9h 15m
Waning Crescent, 1% of the Moon is Illuminated
Jan 19
Waning Crescent
Jan 20
New
Jan 26
First Quarter
Feb 3
Full
Feb 11
Last Quarter

Hourly Weather History & Observations

Time (EST) Temp. Windchill Dew Point Humidity Pressure Visibility Wind Dir Wind Speed Gust Speed Precip Events Conditions
12:15 AM 25.7 °F 15.1 °F 20.7 °F 81% 29.96 in 10.0 mi NNW 11.5 mph - N/A   Overcast
12:34 AM 25.7 °F 15.7 °F 20.3 °F 80% 29.96 in 10.0 mi NNW 10.4 mph 17.3 mph N/A   Overcast
12:55 AM 25.9 °F 15.3 °F 20.8 °F 81% 29.97 in 10.0 mi NW 11.5 mph - N/A   Overcast
1:15 AM 25.7 °F 14.0 °F 20.3 °F 80% 29.97 in 10.0 mi NNW 13.8 mph 19.6 mph N/A   Overcast
1:34 AM 25.7 °F 15.1 °F 20.3 °F 80% 29.97 in 10.0 mi NNW 11.5 mph - N/A   Overcast
1:55 AM 24.6 °F 14.4 °F 20.7 °F 85% 29.98 in 10.0 mi North 10.4 mph 18.4 mph N/A   Overcast
2:15 AM 23.9 °F 14.2 °F 19.9 °F 85% 29.99 in 10.0 mi North 9.2 mph 17.3 mph N/A   Overcast
2:34 AM 23.9 °F 14.2 °F 20.7 °F 87% 30.00 in 10.0 mi North 9.2 mph 18.4 mph N/A   Overcast
2:55 AM 22.8 °F 11.5 °F 19.6 °F 87% 30.01 in 10.0 mi North 11.5 mph - N/A Snow Light Snow
3:15 AM 22.6 °F 11.9 °F 19.0 °F 86% 30.02 in 10.0 mi North 10.4 mph 16.1 mph N/A Snow Light Snow
3:34 AM 22.5 °F 12.4 °F 18.5 °F 85% 30.01 in 10.0 mi North 9.2 mph - N/A Snow Light Snow
3:55 AM 22.1 °F 10.6 °F 17.8 °F 83% 30.02 in 10.0 mi North 11.5 mph 16.1 mph N/A   Overcast
4:15 AM 21.7 °F 10.8 °F 16.7 °F 81% 30.02 in 10.0 mi North 10.4 mph - N/A   Overcast
4:34 AM 21.4 °F 9.7 °F 16.5 °F 82% 30.01 in 10.0 mi North 11.5 mph 17.3 mph N/A   Overcast
4:55 AM 21.2 °F 9.5 °F 16.2 °F 81% 30.02 in 10.0 mi North 11.5 mph 16.1 mph N/A   Overcast
5:15 AM 21.0 °F 9.3 °F 16.0 °F 81% 30.02 in 10.0 mi NNE 11.5 mph 17.3 mph N/A   Overcast
5:34 AM 20.8 °F 7.9 °F 16.0 °F 81% 30.03 in 10.0 mi North 13.8 mph - N/A   Overcast
5:55 AM 20.7 °F 7.6 °F 15.4 °F 80% 30.03 in 10.0 mi North 13.8 mph 18.4 mph N/A   Overcast
6:15 AM 20.1 °F 6.9 °F 14.9 °F 80% 30.04 in 10.0 mi North 13.8 mph 20.7 mph N/A   Overcast
6:34 AM 19.8 °F 6.5 °F 14.4 °F 80% 30.04 in 10.0 mi North 13.8 mph 19.6 mph N/A   Overcast
6:55 AM 19.4 °F 7.2 °F 14.0 °F 80% 30.05 in 10.0 mi North 11.5 mph 16.1 mph N/A   Overcast
7:14 AM 19.2 °F 6.4 °F 14.0 °F 80% 30.05 in 10.0 mi North 12.7 mph 16.1 mph N/A   Overcast
7:34 AM 19.0 °F 6.1 °F 13.6 °F 79% 30.05 in 10.0 mi North 12.7 mph - N/A   Overcast
7:55 AM 18.5 °F 7.5 °F 12.9 °F 79% 30.06 in 10.0 mi North 9.2 mph - N/A   Overcast
8:35 AM 18.0 °F 6.9 °F 12.0 °F 78% 30.07 in 10.0 mi North 9.2 mph - N/A   Overcast
8:55 AM 17.6 °F 6.4 °F 11.3 °F 76% 30.07 in 10.0 mi NNE 9.2 mph - N/A Snow Light Snow
9:14 AM 17.4 °F 7.1 °F 11.3 °F 77% 30.07 in 10.0 mi North 8.1 mph - N/A   Overcast
9:35 AM 17.2 °F 6.0 °F 10.9 °F 76% 30.08 in 10.0 mi NNE 9.2 mph - N/A   Overcast
9:55 AM 17.2 °F 5.2 °F 10.8 °F 76% 30.09 in 10.0 mi North 10.4 mph - N/A Snow Light Snow
10:14 AM 17.2 °F 6.8 °F 10.6 °F 75% 30.09 in 10.0 mi NNE 8.1 mph - N/A Snow Light Snow
10:35 AM 17.2 °F 6.8 °F 10.9 °F 76% 30.09 in 10.0 mi NE 8.1 mph - N/A Snow Light Snow
10:55 AM 17.1 °F 6.6 °F 11.1 °F 77% 30.09 in 10.0 mi NNE 8.1 mph - N/A Snow Light Snow
11:14 AM 17.2 °F 7.8 °F 11.1 °F 77% 30.09 in 7.0 mi NNE 6.9 mph - N/A Snow Light Snow
11:35 AM 17.4 °F 8.0 °F 11.3 °F 77% 30.09 in 7.0 mi North 6.9 mph - N/A Snow Light Snow
11:55 AM 17.2 °F 6.0 °F 11.3 °F 78% 30.08 in 10.0 mi NE 9.2 mph - N/A   Overcast
12:14 PM 16.7 °F 7.2 °F 10.8 °F 77% 30.08 in 10.0 mi North 6.9 mph - N/A   Overcast
12:35 PM 16.9 °F 8.5 °F 10.4 °F 76% 30.07 in 10.0 mi NNE 5.8 mph - N/A Snow Light Snow
12:55 PM 17.1 °F 8.7 °F 10.4 °F 75% 30.08 in 10.0 mi North 5.8 mph - N/A   Overcast
1:14 PM 16.9 °F 9.8 °F 10.4 °F 76% 30.07 in 10.0 mi North 4.6 mph - N/A   Mostly Cloudy
1:35 PM 17.6 °F 9.3 °F 10.6 °F 74% 30.07 in 10.0 mi NNW 5.8 mph - N/A   Mostly Cloudy
1:55 PM 16.9 °F 8.5 °F 10.6 °F 76% 30.06 in 10.0 mi NNW 5.8 mph - N/A Snow Light Snow
2:14 PM 16.2 °F 7.6 °F 10.6 °F 79% 30.05 in 10.0 mi North 5.8 mph - N/A Snow Light Snow
2:35 PM 16.2 °F 10.6 °F 10.6 °F 79% 30.05 in 5.0 mi NNW 3.5 mph - N/A Snow Light Snow
2:55 PM 15.6 °F 7.0 °F 10.6 °F 80% 30.05 in 5.0 mi North 5.8 mph - N/A Snow Light Snow
3:15 PM 15.6 °F 10.0 °F 10.2 °F 79% 30.04 in 7.0 mi NE 3.5 mph - N/A Snow Light Snow
3:35 PM 16.5 °F - 11.3 °F 80% 30.04 in 5.0 mi Calm Calm - N/A Snow Light Snow
3:54 PM 16.2 °F - 11.1 °F 81% 30.03 in 10.0 mi Calm Calm - N/A   Scattered Clouds
4:15 PM 16.3 °F - 10.9 °F 79% 30.04 in 10.0 mi Calm Calm - N/A   Scattered Clouds
4:35 PM 16.5 °F 11.0 °F 11.1 °F 79% 30.04 in 10.0 mi North 3.5 mph - N/A   Clear
4:54 PM 16.2 °F - 10.9 °F 80% 30.04 in 10.0 mi Calm Calm - N/A   Clear
5:15 PM 15.8 °F - 10.8 °F 80% 30.05 in 10.0 mi Calm Calm - N/A   Clear
5:35 PM 16.2 °F 10.6 °F 10.9 °F 80% 30.05 in 10.0 mi NW 3.5 mph - N/A   Clear
5:54 PM 16.3 °F - 10.9 °F 79% 30.05 in 10.0 mi Calm Calm - N/A   Scattered Clouds
6:15 PM 16.2 °F 10.6 °F 10.2 °F 77% 30.05 in 10.0 mi NNW 3.5 mph - N/A   Clear
6:35 PM 16.7 °F - 10.0 °F 75% 30.05 in 10.0 mi Calm Calm - N/A   Clear
6:54 PM 16.7 °F - 9.5 °F 73% 30.05 in 10.0 mi Calm Calm - N/A   Clear
7:15 PM 16.3 °F 10.8 °F 10.0 °F 76% 30.04 in 10.0 mi East 3.5 mph - N/A   Clear
7:34 PM 16.0 °F - 10.2 °F 78% 30.04 in 10.0 mi Calm Calm - N/A   Clear
7:54 PM 14.9 °F - 10.2 °F 82% 30.03 in 10.0 mi Calm Calm - N/A   Clear
8:15 PM 14.7 °F - 10.2 °F 82% 30.02 in 10.0 mi Calm Calm - N/A   Clear
8:34 PM 13.1 °F - 9.5 °F 86% 30.02 in 10.0 mi Calm Calm - N/A   Clear
8:54 PM 12.4 °F 6.3 °F 9.0 °F 86% 30.02 in 10.0 mi East 3.5 mph - N/A   Clear
9:15 PM 11.7 °F 5.5 °F 9.0 °F 89% 30.00 in 10.0 mi East 3.5 mph - N/A   Scattered Clouds
9:34 PM 13.5 °F - 10.0 °F 86% 30.01 in 10.0 mi Calm Calm - N/A   Mostly Cloudy
9:55 PM 13.1 °F 5.4 °F 9.3 °F 85% 30.02 in 10.0 mi ENE 4.6 mph - N/A   Overcast
10:15 PM 12.9 °F 5.2 °F 8.6 °F 83% 30.01 in 10.0 mi ENE 4.6 mph - N/A   Mostly Cloudy
10:34 PM 13.1 °F 2.8 °F 8.6 °F 82% 30.01 in 10.0 mi East 6.9 mph - N/A   Overcast
10:55 PM 13.5 °F 4.4 °F 8.6 °F 81% 30.01 in 10.0 mi East 5.8 mph - N/A   Scattered Clouds
11:15 PM 13.8 °F 2.7 °F 9.1 °F 82% 30.01 in 10.0 mi ESE 8.1 mph - N/A   Clear
11:34 PM 14.0 °F 2.0 °F 8.1 °F 77% 30.00 in 10.0 mi East 9.2 mph - N/A   Scattered Clouds
11:55 PM 14.4 °F 4.3 °F 8.6 °F 78% 30.00 in 10.0 mi East 6.9 mph - N/A   Scattered Clouds